Mason City Municipal Airport
Wednesday 10:53 PM
Temperature59° (81°/51°)
Dew Point56°
Relative Humidity89
%
Visibility10
mi
Pressure1013.9
mb
Wind DirectionS
180°
Wind Speed6
mph
Precipitation Today0.00"

Terminal Aerodrome Forecast

283 
FTUS43 KDMX 232334
TAFMCW
TAF
KMCW 232334Z 2400/2424 19010KT P6SM SCT250
     FM241800 VRB06KT P6SM VCSH SCT030 BKN045=

Last 30 Observations

Time PresWx Temp DP Feels RH% Vsby Pressure Ceiling Direction Speed 1h Precip
10:53 PM 59° 56° 90
%
10
mi
1013.9
mb
S
180°
6
mph
0.00"
9:53 PM 61° 57° 87
%
10
mi
1013.6
mb
S
180°
7
mph
0.00"
8:53 PM 62° 56° 80
%
10
mi
1013.9
mb
S
170°
7
mph
0.00"
7:53 PM 65° 57° 76
%
10
mi
1013.9
mb
SSE
160°
7
mph
0.00"
6:53 PM 72° 58° 72°61
%
10
mi
1013.9
mb
SSE
160°
6
mph
0.00"
5:53 PM 77° 57° 77°50
%
10
mi
1013.2
mb
S
180°
13
mph
0.00"
4:53 PM 80° 56° 80°44
%
10
mi
1013.6
mb
S
180°
11
mph
0.00"
3:53 PM 80° 55° 80°42
%
10
mi
1013.6
mb
S
190°
13
mph
0.00"
2:53 PM 80° 56° 80°44
%
10
mi
1014.2
mb
SW
220°
16
mph
0.00"
1:53 PM 80° 58° 80°47
%
10
mi
1014.9
mb
S
190°
13
mph
0.00"
12:53 PM 78° 60° 78°54
%
10
mi
1015.6
mb
S
190°
11
mph
0.00"
11:53 AM 76° 62° 76°62
%
10
mi
1016.3
mb
SSW
210°
9
mph
0.00"
10:53 AM 73° 63° 73°71
%
10
mi
1016.9
mb
SW
230°
7
mph
0.00"
9:53 AM 68° 61° 78
%
10
mi
1017.3
mb
Calm 0.00"
8:53 AM 62° 59° 90
%
10
mi
1017.3
mb
Calm 0.00"
7:53 AM BR 54° 53° 97
%
6
mi
1017.3
mb
S
170°
5
mph
0.00"
6:53 AM 52° 51° 97
%
8
mi
1017.3
mb
SSE
160°
5
mph
0.00"
5:53 AM 52° 51° 97
%
10
mi
1017.3
mb
S
190°
6
mph
0.00"
4:53 AM 53° 52° 96
%
10
mi
1016.9
mb
S
190°
5
mph
0.00"
3:53 AM 55° 53° 93
%
10
mi
1017.3
mb
S
190°
5
mph
0.00"
2:53 AM 57° 54° 89
%
10
mi
1017.3
mb
SSW
200°
8
mph
0.00"
1:53 AM 56° 53° 90
%
10
mi
1017.6
mb
SSW
210°
7
mph
0.00"
12:53 AM 56° 53° 90
%
10
mi
1017.6
mb
S
180°
7
mph
0.00"
11:53 PM 56° 52° 87
%
10
mi
1018.0
mb
S
190°
5
mph
0.00"
10:53 PM 57° 52° 83
%
10
mi
1018.0
mb
S
170°
6
mph
0.00"
9:53 PM 58° 53° 84
%
10
mi
1018.0
mb
S
180°
6
mph
0.00"
8:53 PM 62° 53° 72
%
10
mi
1017.6
mb
S
180°
6
mph
0.00"
7:53 PM 65° 54° 68
%
10
mi
1017.6
mb
S
180°
6
mph
0.00"
6:53 PM 70° 55° 59
%
10
mi
1017.6
mb
S
190°
5
mph
0.00"
5:53 PM 78° 54° 78°43
%
10
mi
1017.3
mb
S
190°
9
mph
0.00"